Location: Ar Ranvel
(48.3000°N, 4.8833°W)
Time: 04:36:09
(UTC+00:00)

Cosmos 1844 - Visible Passes

Search period start: 26 October 2021 00:00
Search period end: 05 November 2021 00:00
Orbit: 821 x 869 km, 70.9° (Epoch: 25 October)

Date Brightness Start Highest point End Pass type
(mag) Time Alt. Az. Time Alt. Az. Time Alt. Az.
26 Oct 4.4 17:45:35 10° NNW 17:50:55 36° NE 17:56:09 10° ESE visible
26 Oct 4.7 19:29:42 10° NW 19:35:13 47° WSW 19:40:38 10° S visible
27 Oct 4.6 19:15:41 10° NW 19:21:13 48° WSW 19:26:40 10° S visible
28 Oct 4.6 19:01:40 10° NW 19:07:13 50° WSW 19:12:42 10° S visible
29 Oct 4.6 18:47:39 10° NW 18:53:14 51° WSW 18:58:43 10° S visible
30 Oct 4.6 18:33:38 10° NW 18:39:14 53° WSW 18:44:44 10° S visible
31 Oct 4.6 18:19:37 10° NW 18:25:14 54° WSW 18:30:46 10° S visible
01 Nov 4.5 18:05:36 10° NW 18:11:14 56° WSW 18:16:47 10° S visible
02 Nov 4.5 17:51:35 10° NW 17:57:14 57° WSW 18:02:48 10° S visible
03 Nov 4.5 17:37:34 10° NW 17:43:14 59° WSW 17:48:48 10° S visible
04 Nov 4.5 17:23:34 10° NNW 17:29:14 61° WSW 17:34:49 10° S visible
